Tracking 30120 objects as of 6-Feb-2025
HD Live streaming from Space Station
objects crossing your sky now

PEGASUS DEB

Track PEGASUS DEB now!
10-day predictions


NORAD ID: 26740
Int'l Code: 1994-029AEH
Perigee: 371.7 km
Apogee: 409.2 km
Inclination: 81.8 °
Period: 92.2 minutes
Semi major axis: 6761 km
RCS: 0.0098 m2 (small)
Launch date: May 19, 1994
Source: United States (US)
Launch site: AIR FORCE WESTERN TEST RANGE (AFWTR)

Note: This is SATELLITE DEBRIS
Your satellite tracking list
Your tracking list is empty




NASA's NSSDC Master Catalog

Two Line Element Set (TLE):
1 26740U 94029AEH 25036.61819886  .00213017  00000-0  23882-2 0  9995
2 26740  81.8475 100.2952 0027710 146.6189 213.6820 15.61508151420466
Source of the keplerian elements: AFSPC